User: anonymous   Login
Location: Unspecified
(0.0000°N, 0.0000°E)
Time: 01:54:38
(UTC+00:00)
Language:

NOSS 2-1 (E) - Orbit

View from above orbital plane
View from above orbital plane
View from above satellite
View from above satellite

Ground track
Ground track

The orbit data is extracted from the following two-line orbital elements,

1 20642U 90050E   23068.13220701 0.00005255  00000-0  50418-3 0    04
2 20642  63.3202 156.4228 0922954  59.8116 300.1368 13.45426883    06
Epoch (UTC): 09 March 2023 03:10:22
Eccentricity: 0.0922954
inclination: 63.3202°
perigee height: 400 km
apogee height: 1778 km
right ascension of ascending node: 156.4228°
argument of perigee: 59.8116°
revolutions per day: 13.45426883
mean anomaly at epoch: 300.1368°
orbit number at epoch: 0

The dashed part of the orbit path shows where the satellite is in the earth's shadow,  

DLR